Live Position
Loading 3D Globe...
About PUNCH-WFI-2
Group: 3 satellites
Description loading...
Upcoming Passes
Passes for default location (London). Set your location on the main map for personalized predictions.
Altitude History
Loading altitude history...
No altitude history available
Two-Line Element Set
1 63181U 25047D 26105.39007789 .00000283 00000-0 50339-4 0 9991
2 63181 97.9570 291.6411 0010018 31.5152 328.6654 14.74282880 58808
Epoch: Apr 15, 2026 •
Age: 13 hours
Current Status
Altitude 644.6 km
Velocity 7.54 km/s
Sub-Earth Point -1.50°S,
112.5°E
Launch Date Mar 12, 2025
Age 1 years
Type other
Technical Details
Classification Payload
Mass 64.00 kg
Dry Mass 64.00 kg
Total Mass 64.00 kg
Length 1.00 m
Diameter 0.50 m
Span 1.00 m
Shape Box+panel
Manufacturer SWRI
Bus Type Punch
Phase Status In Orbit
Owner/State SWRI/GSFC/US
Most Searched
Loading...